Probability
3 3 3 3 3 2 3 3 3 3 3 2 2 1 0 0 0 1 7 19 36 48 49 42 37 36 40 46 49 47 42 37 39 45 50 53 57 60 60 62 66 71 74
3 3 3 3 3 3 3 3 2 3 2 1 1 1 0 0 0 0 4 12 27 44 54 53 48 45 44 46 46 44 41 37 37 41 44 47 52 56 59 61 64 69 74
3 3 3 3 3 3 2 1 1 1 1 1 0 1 0 0 0 0 1 4 13 29 47 57 58 52 45 40 37 35 34 32 32 34 36 40 45 51 55 57 58 63 68
3 3 3 2 2 1 1 0 0 0 0 0 0 0 0 0 0 1 2 2 4 11 25 42 49 46 37 29 22 20 21 22 23 26 30 34 37 40 44 48 51 54 57
3 2 1 1 1 0 0 0 0 0 0 0 0 0 0 0 0 1 2 2 1 2 7 17 27 29 24 15 9 7 9 11 12 15 20 23 25 26 29 34 39 42 43
4 2 0 0 0 0 0 0 0 0 0 0 0 0 0 0 0 0 1 1 0 0 0 3 7 10 8 5 2 1 2 3 4 5 9 12 13 15 17 19 23 27 29
3 2 0 0 0 0 0 0 0 0 0 0 0 0 0 0 0 0 0 0 0 0 0 0 0 0 0 0 0 0 0 1 1 1 2 3 5 6 7 7 9 13 15
1 1 0 0 0 0 0 0 0 0 0 0 0 0 0 0 0 0 0 0 0 0 0 0 0 0 0 0 0 0 0 0 0 0 1 2 2 2 2 1 1 3 4
0 0 0 0 0 0 0 0 0 0 0 0 0 0 0 0 0 0 0 0 0 0 0 0 0 0 0 0 0 0 0 0 0 0 1 2 3 2 1 0 0 0 0
0 0 0 0 0 0 0 0 0 0 0 0 0 0 0 0 0 0 0 0 0 0 0 0 0 0 0 0 0 0 0 0 0 0 0 1 2 1 0 0 0 0 0
0 0 0 0 0 0 0 0 0 0 0 0 0 0 0 0 0 0 0 0 0 0 0 0 0 0 0 0 0 0 0 0 0 0 0 0 0 0 0 0 0 0 0
0 0 0 0 0 0 0 0 0 0 0 0 0 0 0 0 0 0 0 0 0 0 0 0 0 0 0 0 0 0 0 0 0 0 0 0 0 0 0 0 0 0 0
0 0 0 0 0 0 0 0 0 0 0 0 0 0 0 0 0 0 0 0 0 0 0 0 0 0 0 0 0 0 0 0 0 0 0 0 0 0 0 0 0 0 0
0 0 0 0 0 0 0 0 0 0 0 0 0 0 0 0 0 0 0 0 0 0 0 0 0 0 0 0 0 0 0 0 0 0 0 0 0 0 0 0 0 0 0
0 0 0 0 0 0 0 0 0 0 0 0 0 0 0 0 0 0 0 0 0 0 0 0 0 0 0 0 0 0 0 0 0 0 0 0 0 0 0 0 0 0 0
0 0 0 0 0 0 0 0 0 0 0 0 0 0 0 0 0 0 0 0 0 0 0 0 0 0 0 0 0 0 0 0 0 0 0 0 0 0 0 0 0 0 0
0 0 0 0 0 0 0 0 0 0 0 0 0 0 0 0 0 0 0 0 0 0 0 0 0 0 0 0 0 0 0 0 0 0 0 0 0 0 0 0 0 0 0
0 0 0 0 0 0 0 0 0 0 0 0 0 0 0 0 0 0 0 0 0 0 0 0 0 0 0 0 0 0 0 0 0 0 0 0 0 0 0 0 0 0 0
0 0 0 0 0 0 0 0 0 0 0 0 0 0 0 0 0 0 0 0 0 0 0 0 0 0 0 0 0 0 0 0 0 0 0 0 0 0 0 0 0 0 0
0 0 0 0 0 0 0 0 0 0 0 0 0 0 0 0 0 0 0 0 0 0 0 0 0 0 0 0 0 0 0 0 0 0 0 0 0 0 0 0 0 0 0
0 0 0 0 0 0 0 0 0 0 0 0 0 0 0 0 0 0 0 0 0 0 0 0 0 0 0 0 0 0 0 0 0 0 0 0 0 0 0 0 0 0 0
0 0 0 0 0 0 0 0 0 0 0 0 0 0 0 0 0 0 0 0 0 0 0 0 0 0 0 0 0 0 0 0 0 0 0 0 0 0 0 0 0 0 0
0 0 0 0 0 0 0 0 0 0 0 0 0 0 0 0 0 0 0 0 0 0 0 0 0 0 0 0 0 0 0 0 0 0 0 0 0 0 0 0 0 0 0
0 0 0 0 0 0 0 0 0 0 0 0 0 0 0 0 0 0 0 0 0 0 0 0 0 0 0 0 0 0 0 0 0 0 0 0 0 0 0 0 0 0 0
0 0 0 0 0 0 0 0 0 0 0 0 0 0 0 0 0 0 0 0 0 0 0 0 0 0 0 0 0 0 0 0 0 0 0 0 0 0 0 0 0 0 0
0 0 0 0 0 0 0 0 0 0 0 0 0 0 0 0 0 0 0 0 0 0 0 0 0 0 0 0 0 0 0 0 0 0 0 0 0 0 0 0 0 0 0
Wind_Speed
5 5 4 3 3 3 3 2 2 2 1 1 1 3 3 2 3 3 2 8 9 9 10 10 10 10 9 8 7 6 5 5 4 4 4 4 5 6 6 7 8 9 10
5 4 3 3 3 3 3 2 2 2 2 2 4 4 4 3 1 1 1 4 8 9 10 10 10 10 9 8 7 6 5 5 5 5 5 5 6 7 7 8 8 9 10
5 4 4 3 2 2 3 3 3 3 4 4 4 4 3 3 2 1 1 2 3 7 9 9 8 8 8 7 6 6 6 6 6 7 7 7 7 7 8 9 9 10 10
6 5 4 3 2 3 3 4 3 3 3 3 3 3 3 3 3 2 1 2 2 3 4 7 6 7 7 6 5 6 7 8 8 8 9 9 9 9 9 9 9 10 10
6 5 4 3 4 4 3 4 4 3 3 3 2 2 3 3 4 4 3 3 2 2 2 3 2 2 3 3 5 6 8 9 10 10 10 11 10 10 10 10 10 11 11
7 6 5 5 4 4 4 4 4 4 3 2 3 3 3 3 3 3 4 4 4 4 4 3 3 4 6 6 7 8 10 11 12 12 13 13 12 10 10 11 11 12 13
7 6 5 5 4 4 3 3 3 4 3 3 3 4 4 4 3 3 4 4 6 6 5 4 3 2 3 7 8 10 11 13 14 14 14 14 13 11 11 11 11 12 13
7 7 6 5 4 4 4 4 3 2 3 3 2 2 4 5 4 3 3 4 5 4 5 6 4 4 3 2 6 12 14 15 16 16 17 16 15 13 13 13 13 14 15
8 7 7 5 4 4 4 4 4 4 2 3 2 3 2 2 4 3 3 4 5 4 4 4 5 5 5 4 4 8 13 14 15 17 18 18 17 16 16 16 15 15 16
7 7 7 6 5 4 4 3 4 3 3 2 2 2 2 3 1 4 4 3 4 4 4 5 5 5 6 4 6 11 14 14 15 17 18 19 19 19 19 18 18 17 17
6 6 6 6 5 4 4 4 3 3 2 2 1 1 1 1 2 2 4 5 4 3 3 3 3 4 5 4 4 10 17 16 16 17 17 18 19 20 20 20 19 18 19
4 5 6 5 5 3 3 3 2 3 2 2 1 1 1 1 1 1 3 4 4 4 4 3 3 3 4 4 8 18 20 18 17 17 18 18 19 19 20 20 19 19 19
4 4 5 4 3 3 3 3 2 1 1 1 1 2 2 3 3 3 3 4 4 4 4 3 4 4 5 3 6 18 17 19 19 18 18 18 19 19 20 20 20 20 20
4 5 5 4 4 3 3 2 1 1 1 2 3 3 2 3 3 3 3 3 5 5 4 6 4 4 5 5 8 15 9 18 20 20 19 20 20 21 21 21 21 21 21
5 5 5 4 3 2 2 1 1 1 1 2 3 3 3 3 3 4 4 4 5 8 7 5 4 5 5 5 10 7 7 15 22 22 21 20 21 21 22 21 22 22 21
5 5 3 3 2 1 0 1 0 1 1 2 2 2 3 3 3 4 4 4 4 6 8 4 4 5 6 8 14 9 8 21 21 22 22 21 21 22 22 22 23 23 22
5 4 3 3 2 2 2 2 2 3 3 3 4 4 4 4 4 4 4 4 4 4 9 7 4 5 6 8 10 8 8 8 10 20 21 21 20 21 21 22 21 21 21
4 4 4 4 4 5 6 5 5 5 4 4 5 5 6 5 5 5 4 5 5 6 7 11 6 5 7 8 8 9 10 10 7 16 21 21 21 20 19 18 18 17 16
5 5 5 6 6 6 6 5 4 3 4 4 5 5 6 6 6 6 6 6 6 7 6 7 8 6 6 7 7 9 10 8 10 13 17 19 19 18 17 15 15 14 14
5 5 6 6 6 5 4 4 3 3 4 5 5 6 7 7 7 7 7 7 6 7 7 7 8 7 7 7 6 7 8 7 8 10 13 14 16 17 16 15 14 14 14
5 5 6 5 4 3 2 3 3 4 5 6 7 7 7 11 12 9 8 7 6 6 7 7 8 8 8 7 7 6 8 8 9 8 7 7 6 6 7 11 13 14 13
5 5 5 3 2 2 2 4 5 4 5 6 8 8 9 9 12 15 17 16 13 10 9 8 8 9 9 8 7 7 8 8 6 4 4 6 4 6 6 5 10 12 12
5 4 3 2 1 2 3 5 9 6 6 6 7 7 8 9 11 8 12 15 14 16 15 11 9 9 8 7 8 9 8 9 8 5 5 6 5 6 6 6 11 12 12
3 2 2 1 1 3 4 6 10 6 6 7 7 8 8 8 8 9 9 10 9 9 10 7 6 8 8 7 7 7 8 8 7 6 4 4 3 4 5 5 9 12 12
2 1 1 1 2 3 5 7 9 5 6 8 8 8 8 7 10 11 9 9 9 8 9 9 9 9 10 9 7 5 5 5 5 4 1 2 3 3 4 4 5 10 11
1 2 2 3 2 3 5 8 10 4 6 7 7 7 9 9 12 12 7 7 8 8 8 8 7 7 6 6 7 5 4 5 4 3 2 3 3 3 4 3 3 3 5
Wind_Direction
188 187 189 190 200 196 191 207 219 210 214 235 68 81 87 116 149 163 190 195 199 203 203 203 203 204 203 204 205 207 214 227 238 249 258 257 252 249 248 244 237 230 226
178 176 175 179 189 178 169 164 147 115 87 66 51 53 63 67 84 161 208 218 217 217 217 217 217 214 212 210 210 216 223 234 248 259 267 271 270 268 265 261 255 248 240
159 152 149 155 160 140 125 105 87 75 64 51 39 33 45 48 54 33 261 270 264 249 239 230 223 217 216 218 223 235 243 248 255 259 264 269 271 273 273 271 268 263 257
144 138 134 130 117 100 101 98 83 72 55 41 20 6 11 9 9 354 316 286 276 272 259 250 234 223 223 229 242 258 266 267 266 268 271 272 272 273 275 276 276 274 271
126 120 111 101 97 85 78 86 66 72 53 23 356 360 359 349 343 348 346 337 327 305 302 296 288 269 259 267 278 283 282 283 280 275 275 275 275 277 279 280 280 278 276
109 102 93 85 85 84 71 70 70 55 55 21 356 352 336 339 354 12 12 21 25 28 30 28 19 10 2 345 331 317 304 297 291 285 282 278 274 275 280 283 286 284 281
98 92 92 81 77 83 83 80 75 56 34 22 32 356 343 360 25 41 37 40 28 20 22 24 18 15 358 357 346 328 314 303 296 292 287 283 279 275 273 276 281 285 286
94 95 90 85 80 84 72 62 70 72 31 32 71 49 353 344 350 17 26 43 28 18 17 13 12 7 346 341 330 330 321 312 303 294 288 283 277 272 270 271 275 279 282
93 95 93 86 77 80 84 76 74 90 74 26 55 115 113 278 312 326 4 28 17 16 4 357 5 357 348 343 325 325 324 322 314 304 295 288 280 273 266 266 268 272 276
100 101 97 92 87 87 91 87 84 90 99 60 30 54 132 170 184 314 323 347 2 4 352 352 348 343 344 338 330 334 333 327 318 310 301 294 285 275 268 265 265 267 272
104 108 105 100 99 95 98 93 91 91 106 125 118 68 56 61 123 173 294 315 326 318 318 319 321 325 329 330 323 322 326 323 321 314 307 299 292 282 273 267 262 263 267
105 108 106 102 105 107 110 111 109 108 119 134 149 153 156 183 232 197 243 277 293 294 294 290 295 297 301 309 315 321 320 320 318 313 309 304 298 290 280 273 267 265 266
118 121 116 114 117 125 123 118 107 114 161 189 210 220 210 212 206 202 226 261 267 276 282 281 272 279 293 295 302 310 312 312 310 307 303 300 296 290 284 277 272 269 268
130 132 128 127 131 128 121 121 122 222 220 234 246 243 244 247 229 219 225 253 280 276 262 264 272 266 276 279 282 300 298 302 302 300 296 291 288 285 280 275 271 269 267
129 127 127 125 131 138 147 149 202 263 262 258 264 267 262 264 260 250 239 227 254 284 283 260 262 262 268 273 283 285 275 292 297 295 291 285 281 278 275 271 266 263 261
108 114 118 126 130 133 137 110 318 317 339 320 303 300 290 281 281 274 264 257 245 265 284 260 253 261 274 287 293 290 281 294 295 292 288 283 277 274 271 268 263 259 255
99 101 102 98 85 52 39 49 37 24 19 358 347 332 310 299 290 287 281 273 265 261 281 284 259 266 270 276 286 285 282 278 280 287 287 285 281 276 272 268 263 258 254
77 76 71 63 62 64 63 61 47 36 24 1 341 333 318 314 303 289 280 271 267 259 266 284 285 276 271 272 276 280 288 289 282 288 288 286 283 279 274 268 261 254 249
58 55 67 77 78 73 67 57 46 26 358 331 318 311 304 302 296 289 282 274 269 272 261 273 283 277 274 277 282 283 283 282 284 286 287 285 283 283 280 274 263 251 244
57 64 75 83 84 79 69 43 23 1 335 318 306 297 291 288 281 281 282 275 274 275 272 273 280 282 279 277 275 282 289 282 283 286 284 280 279 280 278 275 267 256 244
66 75 85 92 93 83 60 32 0 344 326 316 310 302 298 305 308 307 304 291 282 277 277 276 279 282 283 286 283 279 284 287 281 271 272 274 273 270 275 272 269 263 251
63 74 81 84 72 57 13 2 355 330 317 311 308 307 307 307 313 317 314 310 304 295 290 282 281 281 283 282 283 283 286 289 286 258 255 272 264 266 263 254 256 254 249
69 74 73 73 55 294 318 339 344 337 314 305 301 302 309 311 315 308 310 312 309 304 297 289 284 283 285 287 289 289 286 286 283 277 272 273 259 262 261 259 254 249 246
75 73 59 37 332 299 311 331 336 333 310 302 299 296 298 305 310 318 313 309 306 304 302 297 285 286 286 290 288 287 290 288 279 275 263 270 268 262 263 252 251 247 245
58 45 27 1 343 327 334 335 339 319 309 307 305 306 309 309 312 321 317 313 314 315 318 312 300 297 297 300 305 299 298 300 300 292 287 280 280 278 272 262 251 246 245
57 32 15 1 1 346 340 341 344 319 314 315 311 311 314 314 316 321 317 311 315 318 319 320 319 315 309 307 319 315 313 309 308 301 334 306 281 291 290 273 260 254 251